Change the Weather History Date:

Thursday, June 6, 2013

  Actual Average Record
Temperature  
Mean Temperature 66 °F -  
Max Temperature 73 °F 83 °F 96 °F (2008)
Min Temperature 60 °F 54 °F 41 °F (1976)
Cooling Degree Days 2    
Growing Degree Days 16 (Base 50)    
Moisture  
Dew Point 65 °F    
Average Humidity 96    
Maximum Humidity 100    
Minimum Humidity 83    
Precipitation  
Precipitation 2.12 in - - ()
Sea Level Pressure  
Sea Level Pressure 29.96 in    
Wind  
Wind Speed 3 mph (ENE)    
Max Wind Speed 6 mph    
Max Gust Speed -    
Visibility 7 miles    
Events Rain    
Averages and records for this station are not official NWS values.
T = Trace of Precipitation, MM = Missing Value Source: NWS Daily Summary

Daily Weather History Graph

Daily Weather History Graph

Search for Another Location

Airport or City:

Trip Planner

Search our weather history database for the weather conditions in past years. The results will help you decide how hot, cold, wet, or windy it might be!

Date:

Astronomy

Jun. 06, 2013 Rise Set
Actual Time 6:07 AM EDT 8:39 PM EDT
Civil Twilight 5:37 AM EDT 9:09 PM EDT
Nautical Twilight 4:59 AM EDT 9:46 PM EDT
Astronomical Twilight 4:18 AM EDT 10:28 PM EDT
Moon 4:44 AM EDT (6/6) 7:02 PM EDT (6/6)
Length of Visible Light 15h 32m
Length of Day
14h 32m
Waning Crescent, 4% of the Moon is Illuminated
Jun 6
Waning Crescent
Jun 8
New
Jun 16
First Quarter
Jun 23
Full
Jun 30
Last Quarter

Hourly Weather History & Observations

Time (EDT) Temp. Dew Point Humidity Pressure Visibility Wind Dir Wind Speed Gust Speed Precip Events Conditions
12:15 AM 64.4 °F 62.6 °F 94% 30.09 in 5.0 mi ENE 3.5 mph - 0.02 in Rain Rain
12:35 AM 62.6 °F 62.6 °F 100% 30.09 in 7.0 mi Calm Calm - 0.03 in Rain Light Rain
12:55 AM 62.6 °F 62.6 °F 100% 30.08 in 2.5 mi Calm Calm - 0.06 in Rain Light Rain
1:15 AM 62.6 °F 62.6 °F 100% 30.07 in 3.0 mi Calm Calm - 0.04 in Rain Rain
1:35 AM 62.6 °F 62.6 °F 100% 30.07 in 2.0 mi ENE 3.5 mph - 0.13 in Rain Light Rain
1:55 AM 62.6 °F 62.6 °F 100% 30.06 in 2.5 mi ENE 5.8 mph - 0.19 in Rain Heavy Rain
2:15 AM 62.6 °F 62.6 °F 100% 30.05 in 2.5 mi NE 5.8 mph - 0.08 in Rain Rain
2:35 AM 62.6 °F 60.8 °F 94% 30.05 in 3.0 mi NE 3.5 mph - 0.22 in Rain Rain
2:55 AM 62.6 °F 60.8 °F 94% 30.04 in 4.0 mi NE 4.6 mph - 0.36 in Rain Rain
3:15 AM 60.8 °F 60.8 °F 100% 30.03 in 5.0 mi Calm Calm - 0.01 in Rain Light Rain
3:35 AM 62.6 °F 60.8 °F 94% 30.02 in 5.0 mi NE 5.8 mph - 0.03 in Rain Rain
3:55 AM 62.6 °F 60.8 °F 94% 30.01 in 5.0 mi NE 4.6 mph - 0.04 in   Light Drizzle
4:15 AM 62.6 °F 60.8 °F 94% 30.01 in 3.0 mi NNE 4.6 mph - 0.08 in Rain Heavy Rain
4:35 AM 62.6 °F 60.8 °F 94% 30.01 in 3.0 mi NE 3.5 mph - 0.21 in Rain Rain
4:55 AM 62.6 °F 60.8 °F 94% 30.00 in 3.0 mi Calm Calm - 0.26 in Rain Light Rain
5:15 AM 62.6 °F 62.6 °F 100% 30.00 in 4.0 mi Calm Calm - 0.01 in Rain Rain
5:35 AM 62.6 °F 62.6 °F 100% 30.00 in 5.0 mi NNE 3.5 mph - 0.06 in Rain Light Rain
5:55 AM 62.6 °F 62.6 °F 100% 30.00 in 7.0 mi Calm Calm - 0.08 in Rain Light Rain
6:15 AM 62.6 °F 62.6 °F 100% 30.00 in 5.0 mi ENE 3.5 mph - 0.07 in Rain Light Rain
6:35 AM 62.6 °F 62.6 °F 100% 30.00 in 7.0 mi Calm Calm - 0.08 in   Overcast
6:55 AM 62.6 °F 62.6 °F 100% 30.00 in 10.0 mi Calm Calm - 0.08 in   Overcast
7:15 AM 62.6 °F 62.6 °F 100% 30.00 in 7.0 mi Calm Calm - 0.01 in Rain Heavy Rain
7:35 AM 62.6 °F 62.6 °F 100% 30.00 in 2.5 mi NE 3.5 mph - 0.20 in Rain Heavy Rain
7:55 AM 62.6 °F 62.6 °F 100% 29.99 in 2.0 mi North 5.8 mph - 0.44 in Rain Heavy Rain
8:15 AM 62.6 °F 62.6 °F 100% 29.99 in 10.0 mi NNE 4.6 mph - N/A   Overcast
8:35 AM 62.6 °F 62.6 °F 100% 29.99 in 10.0 mi NE 5.8 mph - 0.01 in   Overcast
8:55 AM 64.4 °F 62.6 °F 94% 29.99 in 7.0 mi NNE 4.6 mph - 0.01 in Rain Rain
9:15 AM 64.4 °F 64.4 °F 100% 29.99 in 4.0 mi Calm Calm - 0.04 in Rain Rain
9:35 AM 64.4 °F 64.4 °F 100% 29.98 in 3.0 mi NNE 3.5 mph - 0.21 in Rain Light Rain
9:55 AM 64.4 °F 64.4 °F 100% 29.98 in 5.0 mi NNE 3.5 mph - 0.25 in Rain Heavy Rain
10:15 AM 64.4 °F 64.4 °F 100% 29.98 in 4.0 mi North 3.5 mph - 0.05 in Rain Light Rain
10:35 AM 64.4 °F 64.4 °F 100% 29.98 in 3.0 mi NE 4.6 mph - 0.19 in Rain Rain
10:55 AM 64.4 °F 64.4 °F 100% 29.97 in 10.0 mi NNE 5.8 mph - 0.20 in   Drizzle
11:15 AM 66.2 °F 64.4 °F 94% 29.97 in 7.0 mi NNE 4.6 mph - N/A   Light Drizzle
11:35 AM 66.2 °F 64.4 °F 94% 29.97 in 10.0 mi NNE 4.6 mph - N/A   Drizzle
11:55 AM 66.2 °F 64.4 °F 94% 29.98 in 2.5 mi Calm Calm - 0.06 in Rain Heavy Rain
12:15 PM 66.2 °F 66.2 °F 100% 29.97 in 5.0 mi NE 4.6 mph - 0.06 in Rain Rain
12:35 PM 66.2 °F 66.2 °F 100% 29.97 in 10.0 mi NNE 3.5 mph - 0.06 in   Overcast
12:55 PM 68.0 °F 66.2 °F 94% 29.97 in 10.0 mi NE 3.5 mph - 0.06 in   Overcast
1:15 PM 68.0 °F 66.2 °F 94% 29.95 in 10.0 mi Calm Calm - N/A   Overcast
1:35 PM 69.8 °F 66.2 °F 88% 29.95 in 10.0 mi Calm Calm - N/A   Overcast
1:55 PM 69.8 °F 68.0 °F 94% 29.95 in 10.0 mi Calm Calm - N/A   Overcast
2:35 PM 69.8 °F 68.0 °F 94% 29.93 in 5.0 mi Calm Calm - 0.01 in Rain Rain
2:55 PM 69.8 °F 68.0 °F 94% 29.92 in 10.0 mi East 3.5 mph - 0.01 in   Overcast
3:15 PM 69.8 °F 68.0 °F 94% 29.91 in 10.0 mi Calm Calm - N/A   Mostly Cloudy
3:35 PM 71.6 °F 68.0 °F 88% 29.91 in 10.0 mi ESE 3.5 mph - N/A   Mostly Cloudy
3:55 PM 71.6 °F 68.0 °F 88% 29.90 in 10.0 mi Calm Calm - N/A   Scattered Clouds
4:35 PM 73.4 °F 68.0 °F 83% 29.90 in 10.0 mi Calm Calm - N/A   Mostly Cloudy
4:55 PM 73.4 °F 68.0 °F 83% 29.89 in 10.0 mi SE 3.5 mph - N/A   Scattered Clouds
5:15 PM 73.4 °F 68.0 °F 83% 29.89 in 10.0 mi East 3.5 mph - N/A   Mostly Cloudy
5:35 PM 73.4 °F 68.0 °F 83% 29.88 in 10.0 mi East 5.8 mph - N/A   Scattered Clouds
5:55 PM 71.6 °F 69.8 °F 94% 29.88 in 10.0 mi East 4.6 mph - N/A   Scattered Clouds
6:15 PM 71.6 °F 69.8 °F 94% 29.88 in 10.0 mi ESE 3.5 mph - N/A   Mostly Cloudy
6:35 PM 71.6 °F 69.8 °F 94% 29.87 in 10.0 mi East 3.5 mph - N/A   Scattered Clouds
6:55 PM 71.6 °F 69.8 °F 94% 29.87 in 10.0 mi ESE 3.5 mph - N/A Rain Light Rain
7:15 PM 71.6 °F 69.8 °F 94% 29.87 in 10.0 mi SE 3.5 mph - N/A   Overcast
7:35 PM 71.6 °F 69.8 °F 94% 29.88 in 10.0 mi Calm Calm - N/A   Overcast
7:55 PM 71.6 °F 68.0 °F 88% 29.88 in 10.0 mi SSE 3.5 mph - N/A   Mostly Cloudy
8:15 PM 69.8 °F 68.0 °F 94% 29.88 in 10.0 mi Calm Calm - N/A   Clear
8:35 PM 69.8 °F 68.0 °F 94% 29.88 in 10.0 mi South 3.5 mph - N/A   Scattered Clouds
8:55 PM 69.8 °F 68.0 °F 94% 29.88 in 10.0 mi SE 3.5 mph - N/A   Mostly Cloudy
9:15 PM 69.8 °F 68.0 °F 94% 29.88 in 10.0 mi Calm Calm - N/A   Overcast
9:35 PM 69.8 °F 68.0 °F 94% 29.88 in 10.0 mi SSE 3.5 mph - N/A   Overcast
9:55 PM 69.8 °F 68.0 °F 94% 29.89 in 10.0 mi SSE 4.6 mph - N/A   Overcast
10:15 PM 69.8 °F 68.0 °F 94% 29.90 in 10.0 mi SSE 3.5 mph - N/A   Overcast
10:35 PM 68.0 °F 68.0 °F 100% 29.90 in 10.0 mi SSE 3.5 mph - N/A   Overcast
10:55 PM 68.0 °F 68.0 °F 100% 29.89 in 10.0 mi Calm Calm - N/A   Overcast
11:15 PM 68.0 °F 68.0 °F 100% 29.90 in 10.0 mi SE 3.5 mph - N/A   Overcast
11:35 PM 68.0 °F 68.0 °F 100% 29.90 in 10.0 mi Calm Calm - N/A   Overcast
11:55 PM 68.0 °F 66.2 °F 94% 29.89 in 5.0 mi South 3.5 mph - 0.02 in Rain Heavy Rain